Ponce, PR

9:41 PM AST on August 17, 2017 (GMT -0400)
Mercedita

Weather History for TJPS - January, 2013

Change the Weather History Date:

Tuesday, January 29, 2013

  Actual Average Record
Temperature  
Mean Temperature 75 °F -  
Max Temperature 84 °F 85 °F 89 °F (1997)
Min Temperature 66 °F 67 °F 50 °F (2006)
Cooling Degree Days 10    
Growing Degree Days 25 (Base 50)    
Moisture  
Dew Point 68 °F    
Average Humidity 78    
Maximum Humidity 94    
Minimum Humidity 62    
Precipitation  
Precipitation 0.00 in - - ()
Sea Level Pressure  
Sea Level Pressure 30.06 in    
Wind  
Wind Speed 5 mph (ENE)    
Max Wind Speed 12 mph    
Max Gust Speed -    
Visibility 10 miles    
Events Rain    
Averages and records for this station are not official NWS values.
T = Trace of Precipitation, MM = Missing Value Source: NWS Daily Summary

Daily Weather History Graph

Daily Weather History Graph

Search for Another Location

Airport or City:

Trip Planner

Search our weather history database for the weather conditions in past years. The results will help you decide how hot, cold, wet, or windy it might be!

Date:

Astronomy

Jan. 29, 2013 Rise Set
Actual Time 6:59 AM AST 6:19 PM AST
Civil Twilight 6:36 AM AST 6:42 PM AST
Nautical Twilight 6:10 AM AST 7:08 PM AST
Astronomical Twilight 5:44 AM AST 7:34 PM AST
Moon 8:38 PM AST (1/29) 8:23 AM AST (1/29)
Length of Visible Light 12h 05m
Length of Day
11h 19m
Waning Gibbous, 94% of the Moon is Illuminated
Jan 29
Waning Gibbous
Feb 3
Last Quarter
Feb 10
New
Feb 17
First Quarter
Feb 25
Full

Hourly Weather History & Observations

Time (AST) Temp. Heat Index Dew Point Humidity Pressure Visibility Wind Dir Wind Speed Gust Speed Precip Events Conditions
12:50 AM 68.0 °F - 62.6 °F 83% 30.10 in 10.0 mi NE 5.8 mph - N/A   Clear
2:50 AM 68.0 °F - 62.6 °F 83% 30.07 in 10.0 mi NE 5.8 mph - N/A   Clear
3:50 AM 66.2 °F - 62.6 °F 88% 30.06 in 10.0 mi ENE 5.8 mph - N/A   Partly Cloudy
4:50 AM 68.0 °F - 64.4 °F 88% 30.06 in 10.0 mi NE 5.8 mph - N/A   Partly Cloudy
6:50 AM 66.2 °F - 64.4 °F 94% 30.06 in 8.0 mi Calm Calm - N/A   Mostly Cloudy
7:50 AM 73.4 °F - 66.2 °F 78% 30.07 in 10.0 mi NE 5.8 mph - N/A   Mostly Cloudy
8:50 AM 78.8 °F - 66.2 °F 65% 30.08 in 10.0 mi Calm Calm - N/A   Mostly Cloudy
10:50 AM 84.2 °F 88.4 °F 69.8 °F 62% 30.10 in 10.0 mi East 9.2 mph - N/A   Mostly Cloudy
12:50 PM 84.2 °F 89.6 °F 71.6 °F 66% 30.05 in 10.0 mi SE 11.5 mph - N/A   Mostly Cloudy
1:50 PM 84.2 °F 89.6 °F 71.6 °F 66% 30.04 in 10.0 mi ESE 5.8 mph - N/A   Mostly Cloudy
2:50 PM 77.0 °F - 71.6 °F 83% 30.03 in 10.0 mi ENE 9.2 mph - N/A Rain Light Rain
3:50 PM 77.0 °F - 71.6 °F 83% 30.03 in 10.0 mi NE 5.8 mph - N/A   Mostly Cloudy
4:50 PM 80.6 °F 83.9 °F 69.8 °F 70% 30.02 in - Calm Calm - N/A   Mostly Cloudy
5:50 PM 80.6 °F 83.9 °F 69.8 °F 70% 30.03 in 10.0 mi ESE 5.8 mph - N/A   Mostly Cloudy
6:50 PM 75.2 °F - 71.6 °F 89% 30.04 in 8.0 mi Calm Calm - N/A   Mostly Cloudy
7:50 PM 75.2 °F - 71.6 °F 89% 30.04 in 8.0 mi Calm Calm - N/A   Mostly Cloudy
8:50 PM 75.2 °F - 68.0 °F 78% 30.08 in 8.0 mi Calm Calm - N/A   Mostly Cloudy
9:50 PM 75.2 °F - 68.0 °F 78% 30.09 in 8.0 mi Calm Calm - N/A   Mostly Cloudy
10:50 PM 73.4 °F - 66.2 °F 78% 30.08 in 10.0 mi ENE 5.8 mph - N/A   Scattered Clouds
11:50 PM 73.4 °F - 66.2 °F 78% 30.07 in 10.0 mi Calm Calm - N/A   Scattered Clouds